Tiempo cada hora Abaetetuba

Hoy, 25 Octubre, Domingo

Tiempo Temperatura Precipitaciones Viento Presión Humedad
00:00 +27°C° 0 mm 3 mps 756 mmHg 83%
01:00 +26°C° 0 mm 3 mps 756 mmHg 86%
02:00 +26°C° 0 mm 2 mps 756 mmHg 88%
03:00 +25°C° 0 mm 2 mps 755 mmHg 91%
04:00 +25°C° 0 mm 2 mps 756 mmHg 92%
05:00 +25°C° 0 mm 2 mps 756 mmHg 94%
06:00 +25°C° 0 mm 2 mps 756 mmHg 95%
07:00 +27°C° 0 mm 2 mps 757 mmHg 84%
08:00 +29°C° 0 mm 2 mps 757 mmHg 73%
09:00 +33°C° 0 mm 3 mps 758 mmHg 62%
10:00 +35°C° 0 mm 3 mps 757 mmHg 54%
11:00 +36°C° 0 mm 3 mps 757 mmHg 47%
12:00 +38°C° 0 mm 3 mps 756 mmHg 39%
13:00 +38°C° 0 mm 3 mps 755 mmHg 40%
14:00 +38°C° 0 mm 3 mps 755 mmHg 41%
15:00 +38°C° 0 mm 3 mps 754 mmHg 41%
16:00 +36°C° 0 mm 4 mps 754 mmHg 49%
17:00 +34°C° 0 mm 4 mps 754 mmHg 56%
18:00 +32°C° 0 mm 4 mps 754 mmHg 64%
19:00 +30°C° 0 mm 4 mps 755 mmHg 66%
20:00 +30°C° 0 mm 4 mps 756 mmHg 68%
21:00 +29°C° 0 mm 4 mps 756 mmHg 70%
22:00 +29°C° 0 mm 4 mps 756 mmHg 73%
23:00 +28°C° 0 mm 4 mps 756 mmHg 76%

Mañana, 26 Octubre, Lunes

Tiempo Temperatura Precipitaciones Viento Presión Humedad
00:00 +28°C° 0 mm 3 mps 756 mmHg 78%
01:00 +27°C° 0 mm 3 mps 756 mmHg 81%
02:00 +27°C° 0 mm 3 mps 755 mmHg 83%
03:00 +26°C° 0 mm 3 mps 755 mmHg 86%
04:00 +26°C° 0 mm 2 mps 755 mmHg 88%
05:00 +26°C° 0 mm 2 mps 755 mmHg 90%
06:00 +25°C° 0 mm 2 mps 756 mmHg 92%
07:00 +28°C° 0 mm 3 mps 756 mmHg 82%
08:00 +30°C° 0 mm 3 mps 757 mmHg 73%
09:00 +33°C° 0 mm 3 mps 757 mmHg 63%
10:00 +35°C° 0 mm 3 mps 757 mmHg 56%
11:00 +36°C° 0 mm 3 mps 756 mmHg 49%
12:00 +38°C° 0 mm 3 mps 756 mmHg 42%
13:00 +38°C° 0 mm 3 mps 755 mmHg 42%
14:00 +38°C° 0 mm 4 mps 754 mmHg 42%
15:00 +38°C° 0 mm 4 mps 753 mmHg 42%
16:00 +36°C° 0 mm 4 mps 754 mmHg 50%
17:00 +34°C° 0 mm 4 mps 754 mmHg 57%
18:00 +32°C° 0 mm 4 mps 754 mmHg 64%
19:00 +32°C° 0 mm 4 mps 755 mmHg 67%
20:00 +30°C° 0 mm 4 mps 755 mmHg 69%
21:00 +30°C° 0 mm 4 mps 756 mmHg 72%
22:00 +29°C° 0 mm 4 mps 756 mmHg 74%
23:00 +29°C° 0 mm 4 mps 756 mmHg 75%

Pasado mañana, 27 Octubre, Martes

Tiempo Temperatura Precipitaciones Viento Presión Humedad
00:00 +28°C° 0 mm 3 mps 756 mmHg 77%
01:00 +28°C° 0 mm 3 mps 755 mmHg 81%
02:00 +27°C° 0 mm 3 mps 755 mmHg 84%
03:00 +26°C° 0 mm 2 mps 755 mmHg 88%
04:00 +26°C° 0 mm 2 mps 755 mmHg 90%
05:00 +26°C° 0 mm 2 mps 755 mmHg 92%
06:00 +26°C° 0 mm 2 mps 755 mmHg 94%
07:00 +28°C° 0 mm 2 mps 756 mmHg 82%
08:00 +30°C° 0 mm 3 mps 756 mmHg 70%
09:00 +34°C° 0 mm 3 mps 757 mmHg 58%
10:00 +35°C° 0 mm 3 mps 756 mmHg 50%
11:00 +37°C° 0 mm 3 mps 756 mmHg 42%
12:00 +39°C° 0 mm 3 mps 755 mmHg 34%
13:00 +39°C° 0 mm 3 mps 754 mmHg 35%
14:00 +39°C° 0 mm 3 mps 753 mmHg 35%
15:00 +40°C° 0 mm 4 mps 752 mmHg 36%
16:00 +37°C° 0 mm 4 mps 752 mmHg 45%
17:00 +35°C° 0 mm 4 mps 752 mmHg 54%
18:00 +32°C° 0 mm 4 mps 752 mmHg 63%
19:00 +32°C° 0 mm 5 mps 753 mmHg 66%
20:00 +30°C° 0 mm 5 mps 754 mmHg 70%
21:00 +30°C° 0 mm 5 mps 754 mmHg 73%
22:00 +29°C° 0 mm 5 mps 754 mmHg 74%
23:00 +29°C° 0 mm 4 mps 754 mmHg 75%

28 Octubre, Miércoles

Tiempo Temperatura Precipitaciones Viento Presión Humedad
00:00 +28°C° 0 mm 4 mps 754 mmHg 76%
01:00 +28°C° 0 mm 4 mps 754 mmHg 79%
02:00 +27°C° 0 mm 3 mps 753 mmHg 82%
03:00 +27°C° 0 mm 3 mps 753 mmHg 85%
04:00 +27°C° 0 mm 3 mps 753 mmHg 87%
05:00 +27°C° 0 mm 3 mps 754 mmHg 89%
06:00 +27°C° 0 mm 3 mps 754 mmHg 91%
07:00 +29°C° 0 mm 3 mps 755 mmHg 82%
08:00 +31°C° 0 mm 3 mps 755 mmHg 73%
09:00 +33°C° 0 mm 4 mps 756 mmHg 64%
10:00 +35°C° 0 mm 4 mps 756 mmHg 56%
11:00 +37°C° 0 mm 4 mps 755 mmHg 49%
12:00 +40°C° 0 mm 4 mps 755 mmHg 42%
13:00 +38°C° 0.1 mm 4 mps 754 mmHg 44%
14:00 +38°C° 0.1 mm 4 mps 753 mmHg 46%
15:00 +37°C° 0.1 mm 4 mps 752 mmHg 48%
16:00 +36°C° 0 mm 4 mps 752 mmHg 53%
17:00 +34°C° 0 mm 4 mps 752 mmHg 59%
18:00 +33°C° 0 mm 4 mps 752 mmHg 64%
19:00 +32°C° 0 mm 4 mps 753 mmHg 68%
20:00 +30°C° 0 mm 4 mps 754 mmHg 71%
21:00 +30°C° 0 mm 4 mps 754 mmHg 74%
22:00 +29°C° 0 mm 3 mps 754 mmHg 75%
23:00 +29°C° 0 mm 3 mps 754 mmHg 76%

29 Octubre, Jueves

Tiempo Temperatura Precipitaciones Viento Presión Humedad
00:00 +28°C° 0 mm 3 mps 755 mmHg 76%
01:00 +28°C° 0 mm 3 mps 754 mmHg 78%
02:00 +27°C° 0 mm 3 mps 754 mmHg 80%
03:00 +27°C° 0 mm 3 mps 753 mmHg 82%
04:00 +27°C° 0 mm 3 mps 754 mmHg 84%
05:00 +26°C° 0 mm 3 mps 754 mmHg 87%
06:00 +26°C° 0 mm 3 mps 755 mmHg 89%
07:00 +28°C° 0 mm 3 mps 755 mmHg 80%
08:00 +30°C° 0 mm 3 mps 756 mmHg 71%
09:00 +33°C° 0 mm 3 mps 756 mmHg 61%
10:00 +35°C° 0 mm 3 mps 756 mmHg 54%
11:00 +37°C° 0 mm 3 mps 756 mmHg 47%
12:00 +38°C° 0 mm 3 mps 755 mmHg 40%
13:00 +38°C° 0 mm 3 mps 754 mmHg 41%
14:00 +38°C° 0 mm 4 mps 754 mmHg 43%
15:00 +38°C° 0 mm 4 mps 753 mmHg 45%
16:00 +36°C° 0 mm 4 mps 753 mmHg 50%
17:00 +34°C° 0 mm 4 mps 753 mmHg 55%
18:00 +33°C° 0 mm 4 mps 753 mmHg 61%
19:00 +32°C° 0 mm 4 mps 754 mmHg 62%
20:00 +32°C° 0 mm 4 mps 754 mmHg 63%
21:00 +30°C° 0 mm 4 mps 755 mmHg 64%
22:00 +29°C° 0 mm 4 mps 755 mmHg 66%
23:00 +28°C° 0 mm 4 mps 755 mmHg 69%

30 Octubre, Viernes

Tiempo Temperatura Precipitaciones Viento Presión Humedad
00:00 +27°C° 0 mm 3 mps 755 mmHg 72%
01:00 +27°C° 0 mm 3 mps 755 mmHg 76%
02:00 +26°C° 0 mm 3 mps 755 mmHg 80%
03:00 +26°C° 0 mm 3 mps 755 mmHg 84%
04:00 +25°C° 0 mm 3 mps 755 mmHg 87%
05:00 +25°C° 0 mm 3 mps 755 mmHg 89%
06:00 +25°C° 0 mm 3 mps 756 mmHg 92%
07:00 +27°C° 0 mm 3 mps 756 mmHg 82%
08:00 +29°C° 0 mm 3 mps 757 mmHg 73%
09:00 +31°C° 0 mm 3 mps 758 mmHg 64%
10:00 +34°C° 0 mm 3 mps 757 mmHg 56%
11:00 +36°C° 0 mm 3 mps 757 mmHg 48%
12:00 +38°C° 0 mm 3 mps 756 mmHg 40%
13:00 +38°C° 0 mm 3 mps 755 mmHg 39%
14:00 +40°C° 0 mm 4 mps 754 mmHg 38%
15:00 +40°C° 0 mm 4 mps 753 mmHg 37%
16:00 +37°C° 0 mm 4 mps 754 mmHg 45%
17:00 +35°C° 0 mm 4 mps 754 mmHg 53%
18:00 +33°C° 0 mm 4 mps 754 mmHg 61%
19:00 +32°C° 0 mm 4 mps 754 mmHg 62%
20:00 +32°C° 0 mm 4 mps 755 mmHg 64%
21:00 +30°C° 0 mm 4 mps 755 mmHg 66%
22:00 +29°C° 0 mm 3 mps 756 mmHg 68%
23:00 +28°C° 0 mm 3 mps 756 mmHg 71%
Mostrar más

Necesitamos Su Consentimiento

Meteoprog y nuestros Proveedores de Servicios pueden almacenar y acceder a sus datos personales como cookies, identificadores de dispositivo u otras tecnologías similares de su dispositivo y procesar dichos datos para personalizar contenido y anuncios, además de ofrecer funciones de redes sociales y analizar el tráfico.

  • Almacenar y/o acceder a información en su dispositivo

    Se puede almacenar o acceder a cookies, identificadores de dispositivo u otra información de su dispositivo para los fines anteriormente indicados.

  • Anuncios y contenido personalizados, medición de anuncios y contenido, percepciones del público, y desarrollo de productos

    Los anuncios y el contenido pueden personalizarse en base a su perfil. Se pueden añadir más datos para personalizar mejor los anuncios y contenidos. Se puede medir el rendimiento de los anuncios y contenidos. Se puede obtener la percepción sobre el público que ha visto los anuncios y contenidos. Dichos datos pueden usarse para desarrollar o mejorar la experiencia del usuario, sistemas y software.

Al hacer clic en ‘Estoy De Acuerdo’ usted permitirá el uso de las cookies, identificadores de dispositivo, balizas web u otras tecnologías similares indicadas. Su configuración puede cambiarse desde el navegador de su dispositivo.

Para ciertos fines, los intereses legítimos pueden ser considerados por encima del consentimiento. Puede leer más sobre ello en nuestra Política de Privacidad y Cookies.